Date String (YYYY-MM-DD hh:mm:ss) UTC,Instrument flags,Ambient pressure (hPa),Sample flow (lpm),Bypass flow (lpm),Sample temperature (°C),Ambient temperature (°C),ASC tube jacket temperature (°C),LED temperature (°C),Box temperature (°C),Sample RH (%),Span deviation,Mass concentration (μg/m³),Mass concentration (μg/m³),Mass concentration (μg/m³)
DateTimeUTC,F1_M11,P_M11,Q1_M11,Q2_M11,T1_M11,T2_M11,T3_M11,T4_M11,T5_M11,U1_M11,ZSPAN_M11,X2_M11,X0_M11,X1_M11
2022-03-04 13:00:00,,0819.5,4.99,0.00,25.7,24.9,00.0,34.7,27.5,14.1,0001.2,0015.94,0033.73,0013.03
2022-03-04 13:01:00,,0819.5,4.99,0.00,25.7,24.9,00.0,34.7,27.5,14.2,0001.2,0015.97,0033.46,0013.07
2022-03-04 13:02:00,,0819.5,5.01,0.00,25.7,24.9,00.0,34.7,27.5,14.0,0001.1,0015.90,0032.42,0013.01
2022-03-04 13:03:00,,0819.5,5.00,0.00,25.7,24.9,00.0,34.7,27.4,13.7,0000.7,0015.76,0032.46,0012.89
2022-03-04 13:04:00,,0819.6,5.00,0.00,25.7,24.9,00.0,34.7,27.4,13.8,0000.9,0015.59,0032.44,0012.79
2022-03-04 13:05:00,,0819.6,5.00,0.00,25.7,24.8,00.0,34.7,27.4,13.8,0000.8,0015.57,0032.49,0012.75
2022-03-04 13:06:00,,0819.5,5.01,0.00,25.7,24.8,00.0,34.7,27.4,13.7,0000.9,0015.52,0032.69,0012.73
2022-03-04 13:07:00,,0819.5,5.00,0.00,25.6,24.8,00.0,34.7,27.4,13.8,0000.7,0015.49,0032.95,0012.72
2022-03-04 13:08:00,,0819.5,5.00,0.00,25.6,24.8,00.0,34.7,27.5,13.9,0000.3,0015.32,0032.49,0012.63
2022-03-04 13:09:00,,0819.5,5.00,0.00,25.6,24.8,00.0,34.7,27.4,13.8,0000.2,0015.08,0032.31,0012.45
2022-03-04 13:10:00,,0819.5,5.01,0.00,25.6,24.8,00.0,34.7,27.4,13.7,-000.1,0014.83,0032.51,0012.29
2022-03-04 13:11:00,,0819.5,4.99,0.00,25.6,24.8,00.0,34.6,27.4,13.9,-000.5,0014.70,0031.68,0012.20
2022-03-04 13:12:00,,0819.5,5.01,0.00,25.6,24.8,00.0,34.6,27.4,13.8,-000.5,0014.58,0030.87,0012.12
2022-03-04 13:13:00,,0819.5,5.00,0.00,25.6,24.8,00.0,34.6,27.3,13.3,-000.3,0014.41,0031.04,0012.03
2022-03-04 13:14:00,,0819.5,5.00,0.00,25.6,24.8,00.0,34.6,27.3,12.7,0000.2,0014.26,0030.07,0011.89
2022-03-04 13:15:00,,0819.5,5.00,0.00,25.6,24.8,00.0,34.6,27.3,12.3,0000.1,0014.01,0029.75,0011.65
2022-03-04 13:16:00,,0819.6,5.00,0.00,25.6,24.7,00.0,34.6,27.3,12.2,-000.1,0013.67,0029.01,0011.38
2022-03-04 13:17:00,,0819.6,5.00,0.00,25.6,24.7,00.0,34.6,27.3,11.9,-000.1,0013.28,0027.94,0011.07
2022-03-04 13:18:00,,0819.5,5.00,0.00,25.5,24.7,00.0,34.6,27.3,12.0,0000.1,0012.88,0027.18,0010.75
2022-03-04 13:19:00,,0819.5,4.99,0.00,25.5,24.7,00.0,34.6,27.3,11.9,0000.1,0012.46,0026.18,0010.42
2022-03-04 13:20:00,,0819.4,4.99,0.00,25.5,24.7,00.0,34.6,27.3,12.3,0000.1,0012.18,0025.24,0010.20
2022-03-04 13:21:00,,0819.4,5.01,0.00,25.5,24.7,00.0,34.6,27.3,12.1,0000.1,0011.85,0024.04,0009.99
2022-03-04 13:22:00,,0819.4,5.01,0.00,25.5,24.7,00.0,34.6,27.3,11.9,0000.6,0011.43,0023.18,0009.68
2022-03-04 13:23:00,,0819.4,5.01,0.00,25.5,24.7,00.0,34.6,27.3,11.8,0001.0,0011.06,0023.23,0009.34
2022-03-04 13:24:00,,0819.4,5.00,0.00,25.5,24.7,00.0,34.6,27.3,12.0,0000.8,0010.85,0022.39,0009.13
2022-03-04 13:25:00,,0819.4,4.99,0.00,25.5,24.7,00.0,34.5,27.3,12.0,0000.6,0010.70,0022.23,0009.03
2022-03-04 13:26:00,,0819.4,5.00,0.00,25.5,24.7,00.0,34.5,27.3,12.1,0000.8,0010.69,0022.07,0008.99
2022-03-04 13:27:00,,0819.4,5.00,0.00,25.5,24.7,00.0,34.5,27.3,12.1,0000.6,0010.65,0021.42,0008.99
2022-03-04 13:28:00,,0819.4,5.01,0.00,25.5,24.7,00.0,34.5,27.3,12.2,0000.5,0010.67,0021.49,0009.05
2022-03-04 13:29:00,,0819.4,4.98,0.00,25.5,24.7,00.0,34.5,27.3,12.2,0000.4,0010.73,0021.04,0009.11
2022-03-04 13:30:00,,0819.5,5.00,0.00,25.5,24.7,00.0,34.5,27.3,12.1,0000.3,0010.87,0021.31,0009.16
2022-03-04 13:31:00,,0819.5,5.00,0.00,25.5,24.7,00.0,34.5,27.3,12.2,0000.6,0010.87,0021.57,0009.14
2022-03-04 13:32:00,,0819.5,5.01,0.00,25.5,24.7,00.0,34.5,27.3,12.6,0000.5,0010.93,0020.87,0009.20
2022-03-04 13:33:00,,0819.5,5.00,0.00,25.5,24.7,00.0,34.5,27.3,12.6,0000.8,0011.03,0020.97,0009.29
2022-03-04 13:34:00,,0819.5,5.00,0.00,25.5,24.7,00.0,34.5,27.3,12.9,0000.7,0011.20,0020.63,0009.48
2022-03-04 13:35:00,,0819.4,5.00,0.00,25.5,24.7,00.0,34.5,27.3,13.2,0000.9,0011.45,0021.38,0009.70
2022-03-04 13:36:00,,0819.5,5.00,0.00,25.5,24.7,00.0,34.5,27.3,13.3,0000.5,0011.71,0021.92,0009.90
2022-03-04 13:37:00,,0819.4,5.00,0.00,25.5,24.7,00.0,34.5,27.3,13.3,0000.4,0011.91,0022.38,0010.13
2022-03-04 13:38:00,,0819.4,5.00,0.00,25.5,24.7,00.0,34.5,27.3,13.2,0000.6,0012.11,0022.60,0010.26
2022-03-04 13:39:00,,0819.4,5.00,0.00,25.5,24.7,00.0,34.5,27.3,13.1,0001.0,0012.34,0023.24,0010.42
2022-03-04 13:40:00,,0819.4,5.00,0.00,25.5,24.6,00.0,34.5,27.3,12.9,0001.1,0012.49,0024.76,0010.50
2022-03-04 13:41:00,,0819.4,5.00,0.00,25.5,24.6,00.0,34.5,27.3,12.9,0001.3,0012.56,0025.60,0010.60
2022-03-04 13:42:00,,0819.4,5.00,0.00,25.5,24.6,00.0,34.5,27.3,12.7,0001.0,0012.66,0025.52,0010.71
2022-03-04 13:43:00,,0819.3,4.99,0.00,25.5,24.6,00.0,34.5,27.3,12.6,0001.3,0012.67,0025.77,0010.70
2022-03-04 13:44:00,,0819.3,5.00,0.00,25.5,24.6,00.0,34.5,27.3,12.5,0001.1,0012.72,0026.13,0010.67
2022-03-04 13:45:00,,0819.3,5.00,0.00,25.5,24.7,00.0,34.5,27.3,12.5,0000.9,0012.61,0026.17,0010.57
2022-03-04 13:46:00,,0819.2,5.00,0.00,25.5,24.7,00.0,34.5,27.3,12.5,0000.8,0012.31,0025.30,0010.37
2022-03-04 13:47:00,,0819.2,5.00,0.00,25.5,24.7,00.0,34.5,27.3,12.5,0001.1,0012.11,0025.23,0010.21
2022-03-04 13:48:00,,0819.3,5.00,0.00,25.5,24.7,00.0,34.5,27.3,12.6,0001.2,0011.96,0024.77,0010.05
2022-03-04 13:49:00,,0819.2,5.00,0.00,25.5,24.7,00.0,34.5,27.3,12.6,0001.7,0011.83,0025.23,0009.92
2022-03-04 13:50:00,,0819.3,4.99,0.00,25.5,24.6,00.0,34.5,27.3,12.5,0001.4,0011.63,0024.71,0009.79
2022-03-04 13:51:00,,0819.3,4.99,0.00,25.5,24.6,00.0,34.5,27.3,11.8,0001.0,0011.28,0022.63,0009.54
2022-03-04 13:52:00,,0819.4,5.00,0.00,25.5,24.6,00.0,34.5,27.3,12.0,0001.0,0011.05,0021.43,0009.33
2022-03-04 13:53:00,,0819.4,5.00,0.00,25.5,24.7,00.0,34.5,27.3,12.1,0001.4,0010.83,0021.13,0009.16
2022-03-04 13:54:00,,0819.4,5.00,0.00,25.5,24.6,00.0,34.5,27.3,12.1,0001.5,0010.69,0021.30,0009.04
2022-03-04 13:55:00,,0819.4,5.01,0.00,25.5,24.6,00.0,34.5,27.3,11.4,0001.8,0010.38,0020.38,0008.82
2022-03-04 13:56:00,,0819.4,4.99,0.00,25.5,24.7,00.0,34.5,27.3,10.6,0002.1,0009.96,0019.60,0008.47
2022-03-04 13:57:00,,0819.5,5.00,0.00,25.5,24.7,00.0,34.5,27.3,10.0,0002.0,0009.44,0019.31,0008.02
2022-03-04 13:58:00,,0819.5,4.99,0.00,25.5,24.6,00.0,34.5,27.3,10.2,0001.8,0008.86,0017.89,0007.53
2022-03-04 13:59:00,,0819.5,5.00,0.00,25.5,24.7,00.0,34.5,27.3,11.2,0001.6,0008.45,0016.85,0007.22
